Tracking 29892 objects as of 21-Nov-2024
HD Live streaming from Space Station
objects crossing your sky now

SCOUT A DEB

Track SCOUT A DEB now!
10-day predictions


NORAD ID: 31407
Int'l Code: 1966-041H
Perigee: 764.8 km
Apogee: 845.9 km
Inclination: 90.2 °
Period: 100.8 minutes
Semi major axis: 7176 km
RCS: 0.0062 m2 (small)
Launch date: May 19, 1966
Source: United States (US)
Launch site: AIR FORCE WESTERN TEST RANGE (AFWTR)

Note: This is SATELLITE DEBRIS
Your satellite tracking list
Your tracking list is empty




NASA's NSSDC Master Catalog

Two Line Element Set (TLE):
1 31407U 66041H   24323.99216719  .00004519  00000-0  17851-2 0  9993
2 31407  90.1992  61.7625 0056492 351.3881   8.6338 14.28064973417913
Source of the keplerian elements: AFSPC